OPS 4682 DEB, 38440

Orbit data source: Space-Track

OPS 4682 DEB, 38440 is space debris in LEO originally from a launch on Sat, 03 Apr 1965 UTC launched from the Air Force Western Test Range (AFWTR). Debris objects in space refer to the collection of defunct objects orbiting the Earth. Examples of debris include non-operational satellites, rocket bodies, and fragments generated from explosions, collisions, or faulty payload assembly.

Loading next visibility...
Identifier
38440, 1965-027EV
Orbit
LEO
Country
Flag of USUS
Related business
Manufacturer
Unknown
Mission
Spacecraft
Bus & Motor
Unknown
Mass
Unknown
Launch date (UTC)
1965-04-03 (61 years ago)
Launch vehicle
Unknown
Launch site
Air Force Western Test Range (AFWTR)
Object type
Payload
Rocket body
Debris
Shape & HBR
Unknown shape, 0.1 m
Radar Cross Section
Medium (>0.1 m² and <1 m²)

Expand to show TLE details & history
Last TLE update: 1 day ago

TLE from 1 day ago
0 OPS 4682 DEB
1 38440U 65027EV  26234.85641916  .00000858  00000-0  28618-2 0  9994
2 38440  90.2621  18.8405 0038380 206.2824 153.6351 12.98958171625618
Epoch: 2026-08-22T20:33Z
TLE epoch observation values (Epoch: 2026-08-22T20:33:14.615Z)
Latitude
-0.00001°
Longitude
99.36878°
Altitude
1,295.368 km
Speed
7.196 km/s
True Right ascension
01h 15m 21s
True Declination
0° 00' 00"
Sunlit
Object was in full shadow at epoch
Visualization orbit readout
Latitude
Unknown
Longitude
Unknown
Altitude
Unknown
Speed
Unknown
Apparent Right ascension
Unknown
Apparent Declination
Unknown
Sunlit
N/A
Visualization observer readout
Local Sidereal Time
15:53:07
Azimuth
Unknown
Elevation
Unknown
Doppler factor
Unknown
Orbital elements
Apogee altitude
1,292.628 km
Perigee altitude
1,233.972 km
Semi-major axis
7,641.437 km
Eccentricity
0.00384
Inclination
90.2621°
RAAN
18.8405°
Arg. of periapsis
206.2824°
True anomaly
153.82957°
Mean anomaly
153.6351°
Eccentric anomaly
153.73242°
Mean motion
3.24923 °/min
Orbital period
110.8 mins
BSTAR
0.0028618
Loading maneuver chart data...
Computing Atmospheric mass density...
Loading historical data...
Loading historical data...
Loading historical data...
Loading historical data...
Loading historical data...
Loading historical data...
Loading historical data...

Documentation

Showing up to 5 results
|